Date String (YYYY-MM-DD hh:mm:ss) UTC,Instrument flags,Ambient pressure (hPa),Sample flow (lpm),Bypass flow (lpm),Sample temperature (°C),Ambient temperature (°C),ASC tube jacket temperature (°C),LED temperature (°C),Box temperature (°C),Sample RH (%),Span deviation,Mass concentration (μg/m³),Mass concentration (μg/m³),Mass concentration (μg/m³)
DateTimeUTC,F1_M11,P_M11,Q1_M11,Q2_M11,T1_M11,T2_M11,T3_M11,T4_M11,T5_M11,U1_M11,ZSPAN_M11,X0_M11,X2_M11,X1_M11
2023-05-10 21:00:00,,0828.4,5.00,0.00,30.0,28.2,00.0,38.4,31.6,26.0,0000.4,0014.58,0009.94,0009.30
2023-05-10 21:01:00,,0828.4,5.01,0.00,30.0,28.2,00.0,38.4,31.6,26.2,0000.6,0014.66,0010.01,0009.34
2023-05-10 21:02:00,,0828.4,5.01,0.00,30.0,28.2,00.0,38.4,31.5,26.1,0000.8,0014.77,0010.05,0009.39
2023-05-10 21:03:00,,0828.4,4.98,0.00,29.9,28.1,00.0,38.4,31.5,26.1,0000.6,0014.71,0010.04,0009.42
2023-05-10 21:04:00,,0828.4,5.00,0.00,29.9,28.1,00.0,38.4,31.5,26.1,0000.5,0014.81,0010.08,0009.44
2023-05-10 21:05:00,,0828.4,5.01,0.00,29.9,28.1,00.0,38.4,31.5,26.1,0000.5,0015.27,0010.13,0009.46
2023-05-10 21:06:00,,0828.4,5.01,0.00,29.9,28.1,00.0,38.4,31.5,26.3,0000.2,0015.08,0010.15,0009.47
2023-05-10 21:07:00,,0828.4,5.00,0.00,29.9,28.1,00.0,38.4,31.5,26.2,0000.4,0014.97,0010.12,0009.47
2023-05-10 21:08:00,,0828.4,4.98,0.00,29.9,28.1,00.0,38.4,31.5,26.2,0000.5,0014.85,0010.08,0009.47
2023-05-10 21:09:00,,0828.3,5.01,0.00,29.9,28.2,00.0,38.4,31.5,26.4,0000.5,0014.77,0010.07,0009.47
2023-05-10 21:10:00,,0828.2,5.01,0.00,29.9,28.2,00.0,38.4,31.6,26.5,0000.5,0014.63,0010.04,0009.47
2023-05-10 21:11:00,,0828.1,4.99,0.00,29.9,28.2,00.0,38.4,31.6,26.1,0000.4,0014.59,0010.04,0009.48
2023-05-10 21:12:00,,0828.0,5.01,0.00,29.9,28.2,00.0,38.4,31.6,25.8,0000.2,0014.61,0010.05,0009.50
2023-05-10 21:13:00,,0828.1,5.00,0.00,29.9,28.1,00.0,38.4,31.5,25.6,-000.0,0014.68,0010.06,0009.51
2023-05-10 21:14:00,,0828.1,5.00,0.00,29.9,28.0,00.0,38.4,31.4,25.6,0000.2,0014.61,0010.08,0009.53
2023-05-10 21:15:00,,0828.1,5.00,0.00,29.8,27.9,00.0,38.4,31.4,25.8,0000.5,0014.57,0010.12,0009.54
2023-05-10 21:16:00,,0828.1,4.99,0.00,29.8,27.9,00.0,38.3,31.3,25.9,0000.4,0014.10,0010.11,0009.54
2023-05-10 21:17:00,,0828.0,5.01,0.00,29.8,27.9,00.0,38.3,31.4,25.8,0000.3,0014.50,0010.10,0009.56
2023-05-10 21:18:00,,0828.0,5.00,0.00,29.8,27.9,00.0,38.3,31.4,25.8,0000.3,0014.67,0010.14,0009.58
2023-05-10 21:19:00,,0828.1,4.99,0.00,29.8,28.0,00.0,38.3,31.4,25.9,0000.1,0014.91,0010.20,0009.59
2023-05-10 21:20:00,,0828.1,5.01,0.00,29.8,28.0,00.0,38.3,31.4,26.2,0000.1,0015.17,0010.24,0009.60
2023-05-10 21:21:00,,0828.0,5.00,0.00,29.8,28.1,00.0,38.3,31.4,26.2,0000.3,0015.48,0010.26,0009.58
2023-05-10 21:22:00,,0827.9,4.99,0.00,29.8,28.2,00.0,38.3,31.5,26.0,0000.3,0015.70,0010.27,0009.56
2023-05-10 21:23:00,,0827.9,5.00,0.00,29.8,28.2,00.0,38.3,31.5,26.0,0000.3,0015.60,0010.23,0009.51
2023-05-10 21:24:00,,0827.7,5.01,0.00,29.8,28.2,00.0,38.3,31.5,25.9,0000.2,0015.38,0010.24,0009.49
2023-05-10 21:25:00,,0827.7,4.99,0.00,29.8,28.2,00.0,38.3,31.5,25.8,0000.2,0016.12,0010.21,0009.46
2023-05-10 21:26:00,,0827.8,5.00,0.00,29.8,28.3,00.0,38.3,31.5,25.8,-000.2,0016.49,0010.18,0009.43
2023-05-10 21:27:00,,0827.8,5.00,0.00,29.8,28.3,00.0,38.3,31.5,25.9,-000.5,0016.76,0010.13,0009.42
2023-05-10 21:28:00,,0827.9,5.01,0.00,29.8,28.2,00.0,38.3,31.5,26.3,-000.2,0016.20,0010.10,0009.41
2023-05-10 21:29:00,,0827.9,4.99,0.00,29.8,28.1,00.0,38.3,31.4,26.5,0000.0,0015.92,0010.09,0009.40
2023-05-10 21:30:00,,0827.8,5.00,0.00,29.8,28.1,00.0,38.3,31.5,26.3,0000.1,0015.83,0010.06,0009.40
2023-05-10 21:31:00,,0827.8,5.00,0.00,29.8,28.1,00.0,38.3,31.5,26.3,-000.1,0015.80,0010.07,0009.41
2023-05-10 21:32:00,,0827.7,5.00,0.00,29.8,28.1,00.0,38.3,31.5,26.2,-000.4,0015.50,0010.06,0009.44
2023-05-10 21:33:00,,0827.7,5.00,0.00,29.8,28.1,00.0,38.3,31.4,26.0,-000.4,0015.22,0010.03,0009.44
2023-05-10 21:34:00,,0827.7,5.00,0.00,29.8,28.0,00.0,38.3,31.4,26.1,-000.0,0015.48,0010.02,0009.44
2023-05-10 21:35:00,,0827.8,5.00,0.00,29.8,28.0,00.0,38.3,31.4,26.1,0000.2,0015.53,0009.98,0009.43
2023-05-10 21:36:00,,0827.7,5.00,0.00,29.8,28.0,00.0,38.3,31.5,26.1,0000.0,0014.90,0009.95,0009.42
2023-05-10 21:37:00,,0827.6,5.00,0.00,29.8,28.1,00.0,38.3,31.5,26.1,0000.0,0014.47,0009.95,0009.42
2023-05-10 21:38:00,,0827.7,5.00,0.00,29.8,28.1,00.0,38.3,31.5,26.2,0000.2,0014.21,0009.99,0009.44
2023-05-10 21:39:00,,0827.7,4.99,0.00,29.8,28.2,00.0,38.3,31.5,26.5,0000.3,0014.31,0010.01,0009.43
2023-05-10 21:40:00,,0827.8,5.00,0.00,29.8,28.2,00.0,38.3,31.5,26.6,0000.0,0014.32,0010.00,0009.43
2023-05-10 21:41:00,,0827.9,4.99,0.00,29.8,28.2,00.0,38.3,31.5,26.3,-000.1,0014.18,0009.98,0009.43
2023-05-10 21:42:00,,0827.8,4.99,0.00,29.8,28.2,00.0,38.3,31.4,26.2,-000.0,0014.04,0009.95,0009.41
2023-05-10 21:43:00,,0827.8,5.00,0.00,29.8,28.1,00.0,38.3,31.4,26.4,0000.1,0014.11,0009.94,0009.38
2023-05-10 21:44:00,,0827.7,5.00,0.00,29.8,28.1,00.0,38.3,31.4,26.4,0000.2,0014.15,0009.92,0009.37
2023-05-10 21:45:00,,0827.7,5.00,0.00,29.8,28.1,00.0,38.3,31.4,26.8,-000.0,0013.83,0009.89,0009.36
2023-05-10 21:46:00,,0827.7,5.01,0.00,29.8,28.1,00.0,38.3,31.4,26.8,-000.3,0013.50,0009.88,0009.36
2023-05-10 21:47:00,,0827.7,5.00,0.00,29.8,28.1,00.0,38.3,31.4,27.0,-000.6,0014.62,0009.90,0009.39
2023-05-10 21:48:00,,0827.8,4.98,0.00,29.8,28.1,00.0,38.3,31.5,26.9,-000.6,0014.91,0009.93,0009.39
2023-05-10 21:49:00,,0827.7,5.00,0.00,29.8,28.1,00.0,38.3,31.4,26.7,-000.7,0015.12,0009.93,0009.37
2023-05-10 21:50:00,,0827.7,5.01,0.00,29.8,28.1,00.0,38.3,31.5,26.8,-000.8,0015.69,0009.91,0009.37
2023-05-10 21:51:00,,0827.7,5.02,0.00,29.8,28.1,00.0,38.3,31.5,26.8,-000.8,0015.83,0009.91,0009.37
2023-05-10 21:52:00,,0827.7,4.98,0.00,29.8,28.2,00.0,38.3,31.5,26.7,-000.5,0016.12,0009.91,0009.37
2023-05-10 21:53:00,,0827.7,4.99,0.00,29.8,28.2,00.0,38.3,31.5,26.6,-000.3,0016.18,0009.92,0009.38
2023-05-10 21:54:00,,0827.8,5.01,0.00,29.8,28.2,00.0,38.3,31.5,26.6,-000.3,0016.10,0009.90,0009.39
2023-05-10 21:55:00,,0827.9,4.99,0.00,29.8,28.2,00.0,38.3,31.4,27.0,-000.1,0016.13,0009.92,0009.42
2023-05-10 21:56:00,,0827.7,5.00,0.00,29.8,28.1,00.0,38.3,31.4,27.2,0000.0,0016.23,0009.95,0009.44
2023-05-10 21:57:00,,0827.7,5.02,0.00,29.8,28.0,00.0,38.3,31.4,27.2,0000.3,0016.16,0009.95,0009.46
2023-05-10 21:58:00,,0827.6,4.98,0.00,29.8,28.0,00.0,38.3,31.4,27.3,0000.7,0014.93,0009.94,0009.46
2023-05-10 21:59:00,,0827.7,5.01,0.00,29.8,28.0,00.0,38.3,31.4,27.0,0000.8,0014.65,0009.92,0009.46
